Location: Gorze? G�rny
(49.8500°N, 19.5000°E)
Time: 04:21:47
(UTC+00:00)

Okean 2 - Pass Details

Date: 13 May 2021
Orbit: 558 x 577 km, 82.5° (Epoch: 23 June)

Event Time Altitude Azimuth Distance (km) Brightness Sun altitude
Exits shadow 23:17:27 35° 122° (ESE) 934 4.2 -21.0°
Maximum altitude 23:18:18 40° 92° (E) 861 4.3 -21.0°
Drops below altitude 10° 23:22:13 10° 23° (NNE) 1,897 7.2 -20.8°
Sets 23:24:29 0° 17° (NNE) 2,798 8.5 -20.8°
